Weather History for EGPL - January, 2013

Change the Weather History Date:

Saturday, January 26, 2013

  Actual Average Record
Temperature  
Mean Temperature 42 °F -  
Max Temperature 46 °F 43 °F 51 °F (2008)
Min Temperature 37 °F 37 °F 32 °F (2006)
Degree Days  
Heating Degree Days 24    
Moisture  
Dew Point 38 °F    
Average Humidity 85    
Maximum Humidity 100    
Minimum Humidity 70    
Precipitation  
Precipitation 0.00 in - - ()
Sea Level Pressure  
Sea Level Pressure 29.22 in    
Wind  
Wind Speed 16 mph ()    
Max Wind Speed 36 mph    
Max Gust Speed 45 mph    
Visibility 5.6 miles    
Events Rain    
Averages and records for this station are not official NWS values.
T = Trace of Precipitation, MM = Missing Value Source: Averaged Metar Reports

Daily Weather History Graph

Daily Weather History Graph

Search for Another Location

Airport or City:

Trip Planner

Search our weather history database for the weather conditions in past years. The results will help you decide how hot, cold, wet, or windy it might be!

Date:

Astronomy

Jan. 26, 2013 Rise Set
Actual Time 8:42 AM GMT 4:42 PM GMT
Civil Twilight 7:57 AM GMT 5:27 PM GMT
Nautical Twilight 7:09 AM GMT 6:15 PM GMT
Astronomical Twilight 6:24 AM GMT 7:00 PM GMT
Moon 4:32 PM GMT (1/26) 7:46 AM GMT (1/26)
Length of Visible Light 9h 29m
Length of Day
8h 00m
Full, 100% of the Moon is Illuminated
Jan 26
Full
Jan 27
Full
Feb 3
Last Quarter
Feb 10
New
Feb 17
First Quarter

Hourly Weather History & Observations

Time (GMT) Temp. Windchill Dew Point Humidity Pressure Visibility Wind Dir Wind Speed Gust Speed Precip Events Conditions
12:20 AM 41.0 °F 31.4 °F 39.2 °F 93% 29.36 in 6.2 mi WNW 21.9 mph - N/A   Partly Cloudy
12:50 AM 42.8 °F 33.3 °F 35.6 °F 76% 29.36 in 6.2 mi West 24.2 mph - N/A   Unknown
1:20 AM 41.0 °F 31.4 °F 35.6 °F 81% 29.36 in 6.2 mi West 21.9 mph - N/A   Partly Cloudy
1:50 AM 41.0 °F 32.5 °F 35.6 °F 81% 29.39 in 6.2 mi WNW 17.3 mph - N/A   Unknown
2:20 AM 41.0 °F 31.6 °F 35.6 °F 81% 29.39 in 6.2 mi West 20.7 mph - N/A   Partly Cloudy
2:50 AM 41.0 °F 31.9 °F 35.6 °F 81% 29.39 in 6.2 mi West 19.6 mph - N/A   Unknown
3:20 AM 41.0 °F 31.4 °F 33.8 °F 76% 29.39 in 6.2 mi West 21.9 mph - N/A   Partly Cloudy
3:50 AM 41.0 °F 32.2 °F 33.8 °F 76% 29.39 in 6.2 mi West 18.4 mph - N/A   Partly Cloudy
4:20 AM 41.0 °F 31.9 °F 33.8 °F 76% 29.39 in 6.2 mi West 19.6 mph - N/A   Unknown
4:50 AM 39.2 °F 30.2 °F 33.8 °F 81% 29.39 in 6.2 mi NW 17.3 mph - N/A   Partly Cloudy
5:20 AM 41.0 °F 33.5 °F 35.6 °F 81% 29.42 in 6.2 mi NW 13.8 mph - N/A   Unknown
5:50 AM 39.2 °F 32.5 °F 37.4 °F 93% 29.42 in 6.2 mi NNW 10.4 mph - N/A   Unknown
6:20 AM 39.2 °F 35.0 °F 35.6 °F 87% 29.42 in 6.2 mi NNW 5.8 mph - N/A   Unknown
6:50 AM 39.2 °F 33.6 °F 33.8 °F 81% 29.42 in 6.2 mi WNW 8.1 mph - N/A   Partly Cloudy
7:20 AM 37.4 °F 34.9 °F 33.8 °F 87% 29.42 in 6.2 mi West 3.5 mph - N/A   Scattered Clouds
7:50 AM 41.0 °F 33.5 °F 33.8 °F 76% 29.42 in 6.2 mi West 13.8 mph - N/A   Scattered Clouds
8:20 AM 41.0 °F 33.9 °F 35.6 °F 81% 29.42 in 6.2 mi West 12.7 mph 26.5 mph N/A Rain Light Rain Showers
8:50 AM 39.2 °F 34.2 °F 35.6 °F 87% 29.42 in 6.2 mi West 6.9 mph - N/A   Scattered Clouds
9:20 AM 39.2 °F 37.0 °F 33.8 °F 81% 29.42 in 6.2 mi Variable 3.5 mph - N/A   Partly Cloudy
9:50 AM 42.8 °F 36.2 °F 33.8 °F 70% 29.42 in 6.2 mi WSW 12.7 mph - N/A   Mostly Cloudy
10:20 AM 42.8 °F 36.2 °F 33.8 °F 70% 29.42 in 6.2 mi SW 12.7 mph - N/A   Unknown
10:50 AM 42.8 °F 35.8 °F 35.6 °F 76% 29.42 in 6.2 mi SSW 13.8 mph - N/A   Partly Cloudy
11:20 AM 42.8 °F 35.8 °F 35.6 °F 76% 29.42 in 6.2 mi SW 13.8 mph - N/A   Partly Cloudy
11:50 AM 44.6 °F 38.8 °F 37.4 °F 76% 29.39 in 6.2 mi SSW 11.5 mph - N/A   Partly Cloudy
12:20 PM 42.8 °F 36.6 °F 37.4 °F 81% 29.36 in 6.2 mi South 11.5 mph - N/A   Partly Cloudy
12:50 PM 44.6 °F 38.1 °F 35.6 °F 71% 29.33 in 6.2 mi South 13.8 mph - N/A   Partly Cloudy
1:20 PM 42.8 °F 35.4 °F 35.6 °F 76% 29.33 in 6.2 mi South 15.0 mph - N/A   Unknown
1:50 PM 42.8 °F 35.8 °F 35.6 °F 76% 29.30 in 6.2 mi South 13.8 mph - N/A   Mostly Cloudy
2:20 PM 42.8 °F 34.8 °F 37.4 °F 81% 29.24 in 6.2 mi South 17.3 mph - N/A   Drizzle
2:50 PM 42.8 °F 34.5 °F 39.2 °F 87% 29.21 in 5.0 mi SSE 18.4 mph - N/A Rain Light Rain
3:20 PM 41.0 °F 31.1 °F 37.4 °F 87% 29.18 in 6.2 mi SSE 23.0 mph 34.5 mph N/A Rain Light Rain
3:50 PM 41.0 °F 29.8 °F 37.4 °F 87% 29.15 in 5.6 mi SSE 29.9 mph - N/A   Drizzle
4:20 PM 41.0 °F 29.8 °F 39.2 °F 93% 29.09 in 3.7 mi SSE 29.9 mph 41.4 mph N/A Rain Light Rain
4:50 PM 41.0 °F 29.3 °F 41.0 °F 100% 29.06 in - SSE 33.4 mph 44.9 mph N/A Rain Light Rain
5:20 PM 42.8 °F 31.4 °F 41.0 °F 93% 29.00 in 3.1 mi SSE 35.7 mph - N/A   Drizzle
5:50 PM 42.8 °F 31.8 °F 42.8 °F 100% 28.97 in 3.7 mi SSE 33.4 mph - N/A   Drizzle
6:20 PM 42.8 °F 31.9 °F 42.8 °F 100% 28.94 in 3.1 mi SSE 32.2 mph - N/A   Drizzle
6:50 PM 44.6 °F 34.9 °F 42.8 °F 93% 28.91 in 3.7 mi SSE 28.8 mph - N/A   Drizzle
7:20 PM 46.4 °F 37.9 °F 44.6 °F 93% 28.91 in 3.7 mi South 25.3 mph - N/A   Drizzle
7:50 PM 46.4 °F 37.2 °F 44.6 °F 93% 28.88 in - South 29.9 mph - N/A Rain Light Rain
8:20 PM 46.4 °F 37.2 °F 44.6 °F 93% 28.85 in 3.7 mi South 29.9 mph - N/A Rain Light Rain
8:50 PM 44.6 °F 38.4 °F 42.8 °F 93% 28.88 in 3.1 mi West 12.7 mph - N/A Rain Light Rain
9:50 PM 44.6 °F 42.2 °F 42.8 °F 93% 28.88 in - SW 4.6 mph - N/A Rain Light Rain
10:20 PM 44.6 °F 41.4 °F 42.8 °F 93% 28.88 in 4.3 mi SSW 5.8 mph - N/A   Drizzle
10:50 PM 42.8 °F 38.0 °F 41.0 °F 93% 28.85 in 6.2 mi SSE 8.1 mph - N/A   Light Drizzle
11:20 PM 42.8 °F 38.6 °F 39.2 °F 87% 28.82 in 6.2 mi SSE 6.9 mph - N/A Rain Light Rain
11:50 PM 42.8 °F 38.6 °F 39.2 °F 87% 28.82 in 6.2 mi Variable 6.9 mph - N/A   Drizzle